Погода в Чистоозерном

Россия / Ростовская область     48°15′14″N   40°25′32″E
темп.,
°C
ветер,
м/с
пор.,
м/с
влажн.,
%
обл.,
%
осадки,
мм/ч
давл.,
гПа
погр.,
м
10 апреля, сб
сб1000:00+5ссз3878100 0.0 1022313
03:00+5с51162100 0.0 1022520
06:00+4с51163100 0.0 1022429
09:00+7ссв71052100 0.0 1021755
12:00+9ссв6847100 0.0 1021970
15:00+10ссв6955100 0.0 1021854
18:00+8ссв51069100 0.1 1021556
21:00+8ссв4974100 0.1 1022441
11 апреля, вс
вс1100:00+6с488199 0.0 1022271
03:00+6с5118387 0.0 1022455
06:00+5ссв6138791 0.0 1022582
09:00+6ссв5888100 0.0 1023579
12:00+7св5788100 0.0 1023607
15:00+8ссв5684100 0.0 1022649
18:00+9ссв3684100 0.0 1022442
21:00+7с3793100 0.0 1021137
12 апреля, пн
пн1200:00+8с3994100 0.0 1020174
03:00+9св3592100 0.0 101972
06:00+8в3483100 0.0 101951
09:00+13в586397 0.0 1020314
12:00+17вюв71250100 0.0 1020868
15:00+17вюв61159100 0.0 10201081
18:00+14вюв2271100 0.0 102141
21:00+12вюв81584100 0.4 1022606
13 апреля, вт
вт1300:00+12в51380100 0.1 1022419
03:00+10в3986100 0.1 1021224
06:00+9в23895 0.0 102133
09:00+12вюв3775100 0.0 1021386
12:00+13юв3870100 0.1 1021473
15:00+11юв2880100 0.4 1021321
18:00+12ююв3676100 0.0 1021292
21:00+11юз228260 0.0 102120
14 апреля, ср
ср1400:00+10зюз119088 0.0 102111
03:00+10с119199 0.0 102111
06:00+9ю119271 0.0 102110
09:00+14вюв347594 0.0 1021372
12:00+18вюв455588 0.0 10191142
15:00+19вюв3536100 0.0 10181230
18:00+17в224897 0.0 101720
21:00+13ю015393 0.0 101711